Flag for Germany Weather past 2 weeks in Jena, Thuringia, Germany

Now
55 °F

Light rain. Fog.


Feels Like: 53 °F
Forecast: 52 / 68 °F
Wind: 10 mph from West

Location: Erfurt-Bindersleben

Current Time: Sep 2, 2014 at 10:25:06 AM

Latest Report: Sep 2, 2014 at 9:50 AM


Visibility: 3 mi

Pressure: 30.12 "Hg

Humidity: 100%

Dew point: 55 °F

Location of JenaLocation

Historic Weather in Jena — Graph

°F

Jena temperature yesterday

Maximum temperature yesterday: 63 °F (at 3:20 PM)
Minimum temperature yesterday: 50 °F (at 5:20 AM)
Average temperature yesterday: 56 °F

Past Weeks' High & Low Weather Summary

 TemperatureHumidityPressure
High72 °F (Aug 28, 2:20 PM)100% (Aug 21, 6:20 AM)30.12 "Hg (Aug 21, 6:20 AM)
Low43 °F (Aug 21, 5:20 AM)37% (Aug 22, 2:50 PM)29.68 "Hg (Aug 26, 8:20 AM)
Average57 °F76%29.97 "Hg
* Reported Aug 18 9:20 AM — Sep 2 9:20 AM, Jena, Weather by CustomWeather, © 2014

Note: Actual official high and low records may vary slightly from our data, if they occured in-between our weather recording intervals... More about our weather records

Advertising

Jena weather history for previous 24 hours

 ConditionsComfort  
Time TempWeatherWind HumidityBarometerVisibility
9:20 AM
Sep 2
55 °FRain. Fog.10 mph100%30.12 "Hg2 mi
8:50 AM55 °FRain. Fog.8 mph100%30.09 "Hg2 mi
8:20 AM55 °FRain. Fog.8 mph100%30.12 "Hg2 mi
7:50 AM55 °FLight rain. Fog.7 mph94%30.09 "Hg3 mi
7:20 AM55 °FLight rain. Passing clouds.6 mph94%30.09 "Hg5 mi
6:50 AM55 °FLight rain. Passing clouds.8 mph94%30.09 "Hg5 mi
6:20 AM55 °FLight rain. Passing clouds.8 mph94%30.09 "Hg5 mi
5:50 AM55 °FRain. Mostly cloudy.7 mph94%30.09 "Hg5 mi
5:20 AM55 °FRain. Passing clouds.6 mph94%30.09 "Hg5 mi
4:50 AM55 °FLight rain. Passing clouds.7 mph94%30.09 "Hg5 mi
4:20 AM55 °FLight rain. Passing clouds.7 mph94%30.09 "HgN/A
3:50 AM55 °FPassing clouds.7 mph94%30.09 "HgN/A
3:20 AM55 °FPassing clouds.7 mph94%30.09 "HgN/A
2:50 AM55 °FPassing clouds.8 mph94%30.09 "HgN/A
2:20 AM55 °FPassing clouds.8 mph94%30.12 "HgN/A
1:50 AM55 °FPartly cloudy.8 mph94%30.12 "HgN/A
1:20 AM55 °FPassing clouds.8 mph94%30.12 "HgN/A
12:50 AM55 °FFog.8 mph94%30.12 "HgN/A
12:20 AM55 °FFog.7 mph88%30.12 "HgN/A
11:50 PM
Sep 1
55 °FPassing clouds.9 mph94%30.12 "HgN/A
11:20 PM55 °FPassing clouds.8 mph94%30.12 "HgN/A
10:20 PM57 °FPassing clouds.9 mph88%30.12 "HgN/A
9:50 PM57 °FPartly cloudy.10 mph88%30.12 "HgN/A
9:20 PM57 °FLight rain. Partly cloudy.8 mph88%30.12 "HgN/A
8:50 PM59 °FPartly sunny.8 mph82%30.12 "HgN/A
8:20 PM59 °FBroken clouds.8 mph82%30.12 "HgN/A
7:50 PM59 °FPartly sunny.7 mph77%30.09 "HgN/A
7:20 PM59 °FPartly sunny.9 mph77%30.09 "HgN/A
6:20 PM59 °FPartly sunny.13 mph82%30.09 "HgN/A
5:50 PM61 °FScattered clouds.14 mph77%30.09 "HgN/A
5:20 PM61 °FScattered showers. Scattered clouds.10 mph72%30.09 "HgN/A
4:50 PM61 °FScattered clouds.8 mph72%30.09 "HgN/A
4:20 PM63 °FBroken clouds.8 mph68%30.09 "HgN/A
3:50 PM63 °FScattered clouds.9 mph64%30.09 "HgN/A
3:20 PM63 °FPartly sunny.10 mph64%30.09 "HgN/A
2:50 PM61 °FBroken clouds.12 mph72%30.09 "HgN/A
2:20 PM61 °FBroken clouds.12 mph72%30.09 "HgN/A
1:50 PM61 °FBroken clouds.10 mph72%30.09 "HgN/A
1:20 PM61 °FBroken clouds.8 mph63%30.09 "HgN/A
12:50 PM61 °FBroken clouds.13 mph68%30.09 "HgN/A
12:20 PM59 °FBroken clouds.12 mph72%30.09 "HgN/A
11:50 AM59 °FBroken clouds.9 mph72%30.09 "HgN/A
11:20 AM57 °FBroken clouds.9 mph77%30.09 "HgN/A
10:50 AM57 °FPartly sunny.8 mph77%30.09 "HgN/A
10:20 AM57 °FPartly sunny.9 mph82%30.09 "HgN/A
Weather by CustomWeather, © 2014

See weather overviewHow to use our weather pages